Location: Home
(42.5358°N, 72.7383°W)
Time: 21:58:05
(UTC-05:00)

Altair - Pass Details

Date: 15 December 2021
Orbit: 1501 x 1683 km, 47.2° (Epoch: 26 January)

Event Time Altitude Azimuth Distance (km) Brightness Sun altitude
Rises 17:51:37 0° 295° (WNW) 4,743 10.8 -16.4°
Reaches altitude 10° 17:54:44 10° 294° (WNW) 3,735 10.2 -17.0°
Maximum altitude 18:04:03 72° 212° (SSW) 1,580 7.6 -18.6°
Drops below altitude 10° 18:13:08 10° 130° (SE) 3,645 9.1 -20.3°
Enters shadow 18:14:13 - 129° (SE) 3,994 9.3 -20.5°
